Location: College Park
(38.9810°N, 76.9370°W)
Time: 18:13:18
(UTC-04:00)

Tiangong 2 - Visible Passes

Search period start: 19 June 2018 00:00
Search period end: 29 June 2018 00:00
Orbit: 291 x 297 km, 42.8° (Epoch: 19 June)

Date Brightness Start Highest point End Pass type
(mag) Time Alt. Az. Time Alt. Az. Time Alt. Az.
25 Jun 3.1 04:40:03 10° S 04:41:17 13° SE 04:42:30 10° ESE visible
26 Jun 2.1 04:45:14 14° SSW 04:46:47 25° SSE 04:48:59 10° E visible
27 Jun 0.9 04:50:24 15° SW 04:52:16 51° SSE 04:54:47 10° ENE visible
28 Jun 0.5 04:55:26 12° WSW 04:57:45 80° NNW 05:00:17 10° ENE visible
